Overview Statistics Trail Chart Weather Telemetry Raw packets
 

This is the latest recevied weather packets stored in our database for station/object KF6RAL-6. If no packets are shown the sender has not sent any weather packets the latest 10 day(s).

<< 22 23 24 25 26 27 28 >>
Time Temp. Humidity Pressure Rain* Wind** Luminosity Snow
1788466469 23.33° C 28% 1010.7 hPa 0 mm - - -
1788466050 23.33° C 33% 1010.9 hPa 0 mm - - -
1788465627 22.78° C 30% 1010.9 hPa 0 mm - - -
1788465207 22.78° C 33% 1011.5 hPa 0 mm - - -
1788464785 22.22° C 36% 1011.7 hPa 0 mm - - -
1788464364 22.22° C 43% 1011.6 hPa 0 mm - - -
1788463943 22.22° C 43% 1011.8 hPa 0 mm - - -
1788463522 22.22° C 43% 1012 hPa 0 mm - - -
1788463101 22.22° C 43% 1011.9 hPa 0 mm - - -
1788462680 21.67° C 47% 1012.1 hPa 0 mm - - -
1788462259 21.67° C 50% 1012.2 hPa 0 mm - - -
1788461838 21.67° C 46% 1012.4 hPa 0 mm - - -
1788461417 21.67° C 46% 1012.1 hPa 0 mm - - -
1788460996 21.67° C 50% 1012.3 hPa 0 mm - - -
1788460575 21.67° C 48% 1012.2 hPa 0 mm - - -
1788460154 21.11° C 49% 1012.7 hPa 0 mm - - -
1788459732 21.11° C 48% 1012.8 hPa 0 mm - - -
1788459312 21.11° C 49% 1012.8 hPa 0 mm - - -
1788458890 21.11° C 52% 1012.9 hPa 0 mm - - -
1788458471 20.56° C 51% 1012.9 hPa 0 mm - - -
1788458048 20.56° C 52% 1013.3 hPa 0 mm - - -
1788457627 20.56° C 50% 1013.4 hPa 0 mm - - -
1788457206 20.56° C 51% 1013.4 hPa 0 mm - - -
1788456785 20.56° C 51% 1013.4 hPa 0 mm - - -
1788456364 20.56° C 52% 1013.5 hPa 0 mm - - -

* Rain latest hour (hover to see other rain measurements)
** Current wind speed in m/s (hover to see current wind gust speed)